RADUGA-1 8 [+]

Last updated on May 3, 2016, 11:39 p.m. UTC

1 34264U 09010A   16124.81171657 -.00000317  00000-0  00000+0 0  9990
2 34264   4.9468  72.3884 0009412 296.1572 258.5438  0.99822112 26278
UTC
Height (km)
Latitude
Longitude
Inclination
Orbital Period
UTC large
Height (km)
Speed (km/s)
/
Latitude / Longitude
Inclination (degrees)
Orbital Period (minutes)
Azimuth
Elevation
Range (km)
Doppler Factor
iOS Compass Heading
iOS Angle

Next 30 passes for location: Hong Kong

Rise time Rise Azimuth (degrees) Set time Set Azimuth (degrees) Duration Max altitude (degrees)

No matching passes for this satellites